星链-3655 (STARLINK-3655 )

导读 | 星芒AI

STARLINK-3655 是 SpaceX Starlink 项目中的一颗低轨通信卫星,属于第 11 批(v1.5)发射的星链卫星之一。该卫星于 2022 年 10 月 31 日由猎鹰 9 号火箭送入近地轨道,旨在为全球用户提供高速互联网服务。它运行在约 540 公里的高度,具备先进的相控阵天线和激光通信能力,以提升网络性能和连接稳定性。作为星链星座的一部分,STARLINK-3655 支持 SpaceX 打造全球覆盖、低延迟的宽带网络系统。

基本信息
目录编号:
51983
目录名称:
STARLINK-3655
国际标识:
2022-025AD
轨道中心:
EARTH
卫星名称:
星链-3655
卫星全名:
星链-3655 (STARLINK-3655 )
卫星状态:
在轨 (已飞行1383 天)
发射日期:
2022-03-09 UTC
国别 :
美国 (US)
星等 :
--
轨道信息
数据来源 国际轨道数据
星历时间: 2025-12-20T17:19:29+0800
15小时前
查看轨道信息
半长轴: 6917.885km
偏心率: 0.000141
轨道倾角: 53.218°
近地点辐角 88.038°
升交点赤经 35.125°
平近点角 272.078°
近地点: 538.772km
远地点: 540.724km
周期: 95.438分钟
每日圈数: 15.088388
详细信息
固有亮度:
5
最大亮度:
2.5
卫星平台:
Starlink v1.5
覆盖范围:
全球
运营商:
太空探索技术公司
运营商所在国:
美国
制造商(研发单位):
太空探索技术公司
制造商所在国:
美国
使用方式:
暂无
卫星简介
星链(Starlink)计划是由太空探索技术公司(SpaceX)提出的一个巨型低轨卫星互联网星座项目,计划在2019年至2024年间在太空搭建由约1.2万颗卫星组成的“星链”网络,其中1584颗将部署在地球上空550千米处的近地轨道,并从2020年开始工作。该卫星仍在工作。
2D轨道图
3D轨道图
轨道高度分析图
轨道倾角分析图
轨道综合分析图
查看轨道综合分析图